{"data":{"norad_id":44930,"intl_designator":"2020-001S","name":"STARLINK-1123","alt_names":[],"object_type":"PAYLOAD","status":"ACTIVE","operator":null,"country":"US","launch_date":"2020-01-07","launch_site_code":"AFETR","launch_vehicle":null,"mission":null,"orbit_class":"UNKNOWN","rcs_meters":null,"size_class":null,"mass_kg":null,"dimensions":null,"purposes":["comms"],"wikipedia_slug":null,"has_3d_model":false,"image_url":null,"decayed_at":null,"tle_current":{"epoch":"2026-05-25T00:53:38.245344Z","epoch_age_seconds":74925,"freshness":"FRESH","line1":"1 44930U 20001S   26145.03724821  .00073512  00000+0  10507-2 0  9990","line2":"2 44930  53.1462 345.1891 0002831 234.1104 125.9645 15.55599075351634","mean_motion":15.55599075,"eccentricity":0.0002831,"inclination_deg":53.1462,"raan_deg":345.1891,"arg_perigee_deg":234.1104,"mean_anomaly_deg":125.9645,"bstar":0.0010507,"rev_number":35163,"period_min":92.568838792862,"perigee_km":398.49274402274,"apogee_km":402.33075832566,"semimajor_km":6778.5487511742,"source":"CELESTRAK","updated_at":"2026-05-25T13:38:16.375562Z"}}}